Powrót do katalogu

STARLINK-34344

AktywnyŁącznośćSSO
NORAD 64159·PAYLOAD·🇺🇸 United States

Wystrzelony May 27, 2025 z Vandenberg Space Force Base

Loading…

Następne Przeloty (najbliższe 24 godziny)

TLE

ŚwieżeSource: CelesTrak SupGP

Epoka: Sep 15, 2026, 02:38 UTC

1 64159C 25112P   26258.11020833  .00042215  00000+0  13097-2 0  2580
2 64159  97.2839 305.2033 0001162  79.8441  95.6066 15.33437720    12

Śledź STARLINK-34344 w czasie rzeczywistym z AllMySat

Download on the App Store